[[{"header":{"parameterUnit":"m.s-1","parameterCategory":1,"la1":30.2991,"la2":30.254,"lo1":-89.0895,"lo2":-89.0444,"dy":0.0017,"dx":0.0017,"nx":28,"ny":28,"refTime":"2024-08-10T21:00:00:Z","depth":0,"parameterNumber":2,"parameterNumberName":"U-component_of_WINDS"},"data":[0,0,0,0,0,0,0,0,0,0,0,0,0,0,0,0,0,0,0,0,0,0,0,0,0,0,0,0,0,0,0,0,0,0,0,0,0,0,0,0,0,0,0,0,0,0,0,0,0,0,0,0,0,0,0,0,0,0,2.2652,2.2653,0,2.2704,2.2705,2.2705,2.2648,2.2646,2.2643,2.2641,2.2697,2.2701,2.2704,0,0,0,0,0,0,0,0,0,0,0,0,0,2.2503,2.2506,2.2652,2.2653,2.2653,2.2704,2.2705,2.2705,2.2648,2.2646,2.2643,2.264,2.2696,2.27,2.2704,0,0,0,0,0,0,0,0,0,0,0,0,0,2.2563,2.2507,2.2652,2.2631,2.2629,2.2704,2.2705,2.2706,2.2649,2.2646,2.2642,2.2639,2.2695,2.27,2.2705,2.2804,0,0,2.2721,2.2724,0,0,0,0,0,0,0,0,2.2559,2.2568,2.2633,2.2632,2.2631,2.2666,2.2673,2.2739,2.265,2.2642,2.2641,2.2638,2.269,2.2695,2.2712,2.2806,2.2809,2.2722,2.2725,2.2727,2.2729,0,0,0,0,0,0,0,2.2555,2.2566,2.2673,2.2634,2.2633,2.2619,2.2624,2.2685,2.2684,2.2642,2.2638,2.2645,2.2688,2.2707,2.2713,2.2809,2.2722,2.2726,2.273,2.2732,2.2984,2.2987,0,0,0,0,0,0,2.2553,2.2563,2.2671,2.2674,2.2586,2.2624,2.2629,2.2658,2.2683,2.2683,2.2648,2.2642,2.27,2.2707,2.2715,2.283,2.2727,2.2732,2.2735,2.298,2.2985,2.2988,0,0,0,0,0,0,2.255,2.2564,2.2669,2.2617,2.263,2.263,2.2663,2.2661,2.268,2.2687,2.2686,2.2667,2.2698,2.2707,2.2781,2.2831,2.2734,2.2739,2.2976,2.2982,2.2986,2.3062,0,0,0,0,0,0,2.2546,2.2563,2.2601,2.2619,2.2633,2.2735,2.2666,2.2664,2.2689,2.2682,2.2705,2.2706,2.2696,2.2773,2.2786,2.2837,2.2743,2.2972,2.2979,2.2985,2.3055,2.3069,2.3081,0,0,0,0,0,2.2541,2.2621,2.2603,2.2616,2.268,2.2738,2.2746,2.2732,2.2693,2.2731,2.2735,2.2705,2.2824,2.2782,2.2796,2.2848,2.2968,2.2977,2.2984,2.3049,2.3066,2.3081,0,0,0,0,0,0,2.261,2.2623,2.2603,2.2691,2.2713,2.2728,2.2775,2.2751,2.2786,2.2778,2.276,2.2766,2.2843,2.2853,2.2806,2.2943,2.289,2.2901,2.2934,2.2951,2.2963,2.2959,2.2748,0,0,0,0,0,2.2635,2.2681,2.269,2.2767,2.2779,2.2775,2.28,2.2787,2.281,2.2819,2.2829,2.2853,2.2895,2.2923,2.2963,2.3056,2.3059,2.3099,2.3112,2.3123,2.3133,2.318,2.3197,2.3014,2.3014,2.3014,0,0,2.2689,2.2701,2.2731,2.2781,2.2797,2.2844,2.2783,2.2837,2.2871,2.2828,2.2897,2.2905,2.293,2.3013,2.305,2.3024,2.3184,2.3133,2.3141,2.3145,2.319,2.3207,2.3223,2.302,2.3019,2.3018,0,0,2.2809,2.2824,2.2888,2.2904,2.2928,2.2925,2.294,2.2958,2.2961,2.303,2.2997,2.3038,2.3112,2.3131,2.315,2.3274,2.3248,2.3288,2.3356,2.3403,2.3417,2.343,2.3473,2.3489,2.3297,2.3298,2.3298,0,2.2872,2.2942,2.2924,2.2979,2.3001,2.2961,2.3026,2.3043,2.3079,2.3095,2.3065,2.3154,2.3169,2.3255,2.3285,2.3302,2.3318,2.3285,2.3417,2.3429,2.3441,2.3481,2.3498,2.3302,2.3302,2.3301,2.3301,0,2.3017,2.3066,2.3115,2.3149,2.3176,2.3236,2.3227,2.3257,2.3241,2.324,2.331,2.3325,2.3366,2.3386,2.3372,2.3469,2.3451,2.3419,2.3365,2.3463,2.3501,2.3516,2.3309,2.3307,2.3306,2.3305,0,0,2.3185,2.3206,2.3224,2.3238,2.326,2.3298,2.3354,2.3393,2.3418,2.3444,2.349,2.3552,2.3522,2.3543,2.3531,2.3572,2.3667,2.3534,2.3535,2.3557,2.3773,2.3797,2.3815,2.3649,2.3652,2.3655,2.3771,0,2.3304,2.3402,2.3386,2.3481,2.3524,2.3486,2.3535,2.3554,2.3555,2.3592,2.3593,2.3636,2.3593,2.3606,2.3645,2.3647,2.371,2.3639,2.3692,2.3694,2.3686,2.3835,2.3861,2.3969,2.3785,2.3788,2.379,0,2.3457,2.3486,2.3585,2.3598,2.3615,2.366,2.3692,2.3729,2.3749,2.3746,2.3769,2.3748,2.3804,2.3748,2.3825,2.3776,2.3797,2.3802,2.3805,2.381,2.3748,2.3842,2.4004,2.402,2.3813,2.3811,2.381,0,2.3567,2.3632,2.3698,2.3711,2.3728,2.376,2.3769,2.3785,2.3809,2.3837,2.3852,2.3887,2.3907,2.3934,2.3923,2.3884,2.4001,2.3945,2.4,2.4,2.4026,2.4025,2.4193,2.4041,2.4041,2.4041,2.404,0,2.3702,2.3764,2.3747,2.3788,2.3855,2.3836,2.3903,2.3907,2.3921,2.3962,2.3932,2.3971,2.3954,2.3991,2.3983,2.4046,2.4056,2.4055,2.4052,2.4057,2.4057,2.407,2.4062,2.4045,2.4044,2.4043,2.4043,0,2.3837,2.3829,2.3898,2.3907,2.3911,2.396,2.3968,2.4006,2.4003,2.4055,2.4066,2.4062,2.4104,2.4095,2.4143,2.4137,2.4216,2.4204,2.4209,2.4206,2.426,2.4255,2.4442,2.4465,2.43,2.4301,2.4302,0,2.3924,2.3969,2.3983,2.4007,2.4018,2.4058,2.408,2.4063,2.4088,2.4112,2.4147,2.4186,2.4216,2.4286,2.4287,2.4323,2.4311,2.4374,2.4316,2.4319,2.431,2.4307,2.4311,2.4385,2.4387,2.4389,2.439,0,2.4077,2.407,2.4103,2.4135,2.4162,2.4187,2.4208,2.423,2.4214,2.4244,2.4285,2.4309,2.4355,2.4394,2.4427,2.4435,2.441,2.4408,2.4422,2.4428,2.4428,2.4427,2.4239,2.4404,2.4402,2.4401,2.4401,2.44,2.419,2.4228,2.4242,2.428,2.4293,2.4314,2.4349,2.4349,2.4383,2.4419,2.4407,2.4454,2.4471,2.4511,2.4523,2.456,2.4537,2.4558,2.4563,2.4568,2.4574,2.4423,2.4566,2.4566,2.4565,2.4565,2.4565,0,2.4341,2.4347,2.4382,2.4412,2.4441,2.4413,2.4434,2.4461,2.4503,2.452,2.4549,2.4596,2.4633,2.4637,2.4671,2.47,2.4689,2.471,2.4707,2.4709,2.4594,2.4578,2.4718,2.4718,2.4718,2.4717,2.4717,2.4717,2.4423,2.4485,2.4479,2.4546,2.4553,2.4598,2.4612,2.463,2.4643,2.4697,2.4727,2.4728,2.4739,2.4774,2.4806,2.4806,2.482,2.4845,2.484,2.4733,2.4718,2.4703,2.4687,2.4848,2.4848,2.4952,2.4953,2.4953]},{"header":{"parameterUnit":"m.s-1","parameterCategory":1,"la1":30.2991,"la2":30.254,"lo1":-89.0895,"lo2":-89.0444,"dy":0.0017,"dx":0.0017,"nx":28,"ny":28,"refTime":"2024-08-10T21:00:00:Z","depth":0,"parameterNumber":3,"parameterNumberName":"V-component_of_WINDS"},"data":[0,0,0,0,0,0,0,0,0,0,0,0,0,0,0,0,0,0,0,0,0,0,0,0,0,0,0,0,0,0,0,0,0,0,0,0,0,0,0,0,0,0,0,0,0,0,0,0,0,0,0,0,0,0,0,0,0,0,3.287,3.287,0,3.2845,3.2844,3.2844,3.2765,3.2763,3.2762,3.276,3.2735,3.2736,3.2737,0,0,0,0,0,0,0,0,0,0,0,0,0,3.2853,3.2853,3.287,3.287,3.287,3.2845,3.2844,3.2844,3.2766,3.2763,3.2761,3.2759,3.2735,3.2736,3.2737,0,0,0,0,0,0,0,0,0,0,0,0,0,3.2847,3.2854,3.287,3.2827,3.2823,3.2845,3.2844,3.2844,3.2766,3.2763,3.2761,3.2758,3.2735,3.2736,3.2737,3.2799,0,0,3.2742,3.2742,0,0,0,0,0,0,0,0,3.2847,3.2848,3.2834,3.283,3.2826,3.2805,3.2829,3.2829,3.2767,3.2788,3.276,3.2757,3.2761,3.276,3.2761,3.2797,3.2796,3.2742,3.2743,3.2743,3.2744,0,0,0,0,0,0,0,3.2848,3.2848,3.286,3.2834,3.2829,3.281,3.2806,3.2828,3.2789,3.2786,3.278,3.2778,3.2758,3.276,3.276,3.2796,3.2742,3.2743,3.2744,3.2745,3.288,3.2883,0,0,0,0,0,0,3.2854,3.2849,3.2861,3.2859,3.283,3.2812,3.2808,3.2815,3.2789,3.2782,3.278,3.2774,3.2758,3.2758,3.2759,3.2827,3.2743,3.2745,3.2746,3.2878,3.2881,3.2884,0,0,0,0,0,0,3.2854,3.2856,3.2862,3.2853,3.2852,3.2815,3.2823,3.2816,3.2817,3.2785,3.2777,3.2789,3.2756,3.2757,3.2789,3.2825,3.2745,3.2747,3.2874,3.2879,3.2882,3.2966,0,0,0,0,0,0,3.2854,3.2857,3.2879,3.2854,3.2853,3.2893,3.2826,3.2817,3.2819,3.2812,3.2791,3.2785,3.2754,3.2787,3.279,3.2826,3.2748,3.2871,3.2876,3.2881,3.296,3.2973,3.2983,0,0,0,0,0,3.2854,3.2904,3.2881,3.2883,3.288,3.2895,3.2894,3.2858,3.2823,3.2845,3.2824,3.2786,3.2821,3.2791,3.2794,3.2831,3.2868,3.2875,3.2881,3.2955,3.297,3.2983,0,0,0,0,0,0,3.2936,3.29,3.2874,3.2918,3.291,3.2882,3.2909,3.2875,3.2878,3.287,3.2825,3.2821,3.286,3.2849,3.2816,3.2888,3.2838,3.2845,3.2894,3.2908,3.292,3.2921,3.2749,0,0,0,0,0,3.2959,3.2973,3.2942,3.2984,3.2981,3.2946,3.2951,3.2923,3.2913,3.291,3.2891,3.2884,3.2893,3.29,3.2907,3.2958,3.2952,3.2985,3.2997,3.3007,3.3013,3.3038,3.3052,3.2904,3.2904,3.2904,0,0,3.3007,3.2989,3.3001,3.3,3.299,3.3006,3.2944,3.2963,3.2975,3.2913,3.2942,3.2928,3.2917,3.2959,3.2976,3.295,3.3053,3.3014,3.3023,3.3023,3.3046,3.306,3.3072,3.2908,3.2907,3.2907,0,0,3.3102,3.3091,3.3123,3.3115,3.3102,3.3078,3.3086,3.3063,3.3051,3.3079,3.3033,3.3046,3.3064,3.3057,3.3056,3.3149,3.3113,3.3152,3.3213,3.3238,3.325,3.326,3.3292,3.3304,3.3159,3.3159,3.3159,0,3.3163,3.3185,3.3145,3.3167,3.3167,3.3112,3.3145,3.3139,3.3129,3.3131,3.3102,3.3122,3.311,3.3149,3.3172,3.3173,3.3181,3.3154,3.3252,3.3261,3.327,3.33,3.3312,3.3164,3.3163,3.3163,3.3162,0,3.3261,3.3277,3.3305,3.3295,3.3299,3.3327,3.3291,3.33,3.3272,3.3251,3.3281,3.3265,3.3267,3.3275,3.3248,3.331,3.3294,3.326,3.3208,3.329,3.3317,3.3328,3.3171,3.3169,3.3168,3.3166,0,0,3.3406,3.3374,3.3385,3.3379,3.336,3.3371,3.3397,3.3398,3.3406,3.3401,3.3421,3.3437,3.3404,3.3403,3.3376,3.3398,3.3471,3.336,3.3359,3.338,3.3537,3.3562,3.3576,3.3448,3.345,3.3451,3.3537,0,3.3495,3.3535,3.35,3.3547,3.356,3.3508,3.353,3.3521,3.3503,3.3512,3.3492,3.3503,3.346,3.3459,3.3479,3.3458,3.3502,3.3451,3.3465,3.3466,3.3468,3.359,3.3617,3.3699,3.3548,3.355,3.3551,0,3.3604,3.3603,3.3651,3.3628,3.3632,3.3653,3.3651,3.366,3.3649,3.3634,3.3633,3.3599,3.3622,3.3573,3.3604,3.3571,3.3575,3.3566,3.3568,3.3567,3.3512,3.3591,3.3724,3.3736,3.3568,3.3566,3.3565,0,3.3703,3.3714,3.3744,3.3741,3.3716,3.3731,3.3721,3.3707,3.371,3.3709,3.371,3.3712,3.3713,3.3716,3.3683,3.3651,3.3718,3.3667,3.3706,3.3707,3.3721,3.3721,3.3856,3.3726,3.3726,3.3726,3.3726,0,3.3805,3.3837,3.3788,3.3806,3.384,3.3799,3.3834,3.3818,3.3806,3.3821,3.3777,3.3791,3.3748,3.3759,3.3734,3.3763,3.3764,3.3752,3.3745,3.3755,3.3757,3.3756,3.3749,3.3729,3.3728,3.3728,3.3727,0,3.3922,3.389,3.3919,3.3892,3.3886,3.3912,3.3889,3.3905,3.3884,3.3903,3.3905,3.3872,3.3882,3.385,3.3855,3.3838,3.388,3.3864,3.3884,3.3878,3.3919,3.3915,3.4057,3.4073,3.3935,3.3937,3.3938,0,3.3988,3.4011,3.3986,3.3992,3.3984,3.3995,3.3997,3.3959,3.3963,3.3952,3.3969,3.3975,3.3978,3.3996,3.3972,3.3976,3.3959,3.4009,3.3959,3.3969,3.3958,3.3957,3.3958,3.4018,3.402,3.4022,3.4023,0,3.4109,3.4092,3.4097,3.4097,3.4101,3.4099,3.4094,3.4102,3.406,3.4067,3.4076,3.4078,3.4083,3.4089,3.4088,3.4078,3.4043,3.4039,3.4047,3.4058,3.4067,3.4061,3.391,3.4035,3.4034,3.4033,3.4032,3.4032,3.4201,3.4218,3.4203,3.421,3.4202,3.4198,3.4212,3.4192,3.4198,3.4198,3.4176,3.4189,3.4177,3.4171,3.4165,3.4175,3.4152,3.4166,3.4169,3.4172,3.4178,3.4067,3.4175,3.4175,3.4174,3.4174,3.4174,0,3.4318,3.4306,3.4313,3.4306,3.4312,3.4279,3.4272,3.4278,3.4291,3.4282,3.4285,3.4295,3.4301,3.4279,3.4281,3.4294,3.4278,3.4296,3.4294,3.4292,3.4199,3.4191,3.4308,3.4308,3.4308,3.4308,3.4308,3.4308,3.438,3.4407,3.4388,3.4411,3.4398,3.4411,3.4409,3.4406,3.4398,3.4411,3.4416,3.4401,3.4386,3.4388,3.4392,3.4385,3.4387,3.441,3.4398,3.4312,3.4299,3.4286,3.4277,3.4412,3.4412,3.4489,3.449,3.4491]}]]